Year,Month,Day,Hour,Minute,Value (Times are PST for temperature in C)
2016,04,01,00,00,10.20
2016,04,01,00,01,10.20
2016,04,01,00,02,10.20
2016,04,01,00,03,10.10
2016,04,01,00,04,10.10
2016,04,01,00,05,10.10
2016,04,01,00,06,10.10
2016,04,01,00,07,10.00
2016,04,01,00,08,10.00
2016,04,01,00,10,9.90
2016,04,01,00,11,9.90
2016,04,01,00,12,9.90
2016,04,01,00,13,9.90
2016,04,01,00,14,9.90
2016,04,01,00,15,9.90
2016,04,01,00,16,9.90
2016,04,01,00,17,9.90
2016,04,01,00,18,9.90
2016,04,01,00,19,9.90
2016,04,01,00,20,9.90
2016,04,01,00,21,9.90
2016,04,01,00,22,9.90
2016,04,01,00,23,9.90
2016,04,01,00,24,9.90
2016,04,01,00,25,9.80
2016,04,01,00,26,9.80
2016,04,01,00,27,9.80
2016,04,01,00,28,9.80
2016,04,01,00,29,9.80
2016,04,01,00,30,9.70
2016,04,01,00,31,9.70
2016,04,01,00,32,9.70
2016,04,01,00,33,9.70
2016,04,01,00,34,9.70
2016,04,01,00,35,9.70
2016,04,01,00,36,9.70
2016,04,01,00,37,9.60
2016,04,01,00,38,9.60
2016,04,01,00,39,9.60
2016,04,01,00,40,9.60
2016,04,01,00,41,9.60
2016,04,01,00,42,9.60
2016,04,01,00,43,9.50
2016,04,01,00,44,9.60
2016,04,01,00,45,9.60
2016,04,01,00,46,9.70
2016,04,01,00,47,9.70
2016,04,01,00,48,9.70
2016,04,01,00,49,9.70
2016,04,01,00,50,9.80
2016,04,01,00,51,9.80
2016,04,01,00,52,9.80
2016,04,01,00,53,9.80
2016,04,01,00,54,9.80
2016,04,01,00,55,9.80
2016,04,01,00,56,9.80
2016,04,01,00,57,9.80
2016,04,01,00,58,9.80
2016,04,01,00,59,9.90
2016,04,01,01,00,9.90
2016,04,01,01,01,9.90
2016,04,01,01,02,9.90
2016,04,01,01,03,9.90
2016,04,01,01,04,9.90
2016,04,01,01,05,9.90
2016,04,01,01,06,9.90
2016,04,01,01,07,9.80
2016,04,01,01,08,9.80
2016,04,01,01,09,9.80
2016,04,01,01,10,9.80
2016,04,01,01,11,9.80
2016,04,01,01,12,9.70
2016,04,01,01,13,9.70
2016,04,01,01,14,9.70
2016,04,01,01,15,9.60
2016,04,01,01,16,9.60
2016,04,01,01,17,9.60
2016,04,01,01,18,9.60
2016,04,01,01,19,9.60
2016,04,01,01,20,9.60
2016,04,01,01,21,9.60
2016,04,01,01,22,9.60
2016,04,01,01,23,9.60
2016,04,01,01,24,9.60
2016,04,01,01,25,9.50
2016,04,01,01,26,9.50
2016,04,01,01,27,9.50
2016,04,01,01,28,9.50
2016,04,01,01,29,9.50
2016,04,01,01,30,9.60
2016,04,01,01,31,9.60
2016,04,01,01,32,9.60
2016,04,01,01,33,9.70
2016,04,01,01,34,9.70
2016,04,01,01,35,9.70
2016,04,01,01,36,9.70
2016,04,01,01,37,9.70
2016,04,01,01,38,9.80
2016,04,01,01,39,9.70
2016,04,01,01,40,9.80
2016,04,01,01,41,9.80
2016,04,01,01,42,9.70
2016,04,01,01,43,9.70
2016,04,01,01,44,9.70
2016,04,01,01,45,9.70
2016,04,01,01,46,9.70
2016,04,01,01,47,9.70
2016,04,01,01,48,9.70
2016,04,01,01,49,9.70
2016,04,01,01,50,9.60
2016,04,01,01,51,9.60
2016,04,01,01,52,9.60
2016,04,01,01,53,9.60
2016,04,01,01,54,9.50
2016,04,01,01,55,9.50
2016,04,01,01,56,9.40
2016,04,01,01,57,9.40
2016,04,01,01,58,9.40
2016,04,01,01,59,9.40
2016,04,01,02,00,9.30
2016,04,01,02,01,9.30
2016,04,01,02,02,9.30
2016,04,01,02,03,9.30
2016,04,01,02,04,9.20
2016,04,01,02,05,9.20
2016,04,01,02,06,9.20
2016,04,01,02,07,9.10
2016,04,01,02,08,9.10
2016,04,01,02,09,9.10
2016,04,01,02,10,9.10
2016,04,01,02,11,9.10
2016,04,01,02,12,9.10
2016,04,01,02,13,9.10
2016,04,01,02,14,9.10
2016,04,01,02,15,9.10
2016,04,01,02,16,9.10
2016,04,01,02,17,9.00
2016,04,01,02,18,9.00
2016,04,01,02,19,8.90
2016,04,01,02,20,8.90
2016,04,01,02,21,8.90
2016,04,01,02,22,8.90
2016,04,01,02,23,8.80
2016,04,01,02,24,8.80
2016,04,01,02,25,8.80
2016,04,01,02,26,8.80
2016,04,01,02,27,8.80
2016,04,01,02,28,8.80
2016,04,01,02,29,8.80
2016,04,01,02,30,8.70
2016,04,01,02,31,8.70
2016,04,01,02,32,8.70
2016,04,01,02,33,8.60
2016,04,01,02,34,8.60
2016,04,01,02,35,8.60
2016,04,01,02,36,8.60
2016,04,01,02,37,8.60
2016,04,01,02,38,8.50
2016,04,01,02,39,8.60
2016,04,01,02,40,8.60
2016,04,01,02,41,8.50
2016,04,01,02,42,8.50
2016,04,01,02,43,8.50
2016,04,01,02,44,8.50
2016,04,01,02,45,8.40
2016,04,01,02,46,8.40
2016,04,01,02,47,8.40
2016,04,01,02,48,8.30
2016,04,01,02,49,8.30
2016,04,01,02,50,8.30
2016,04,01,02,51,8.30
2016,04,01,02,52,8.20
2016,04,01,02,53,8.20
2016,04,01,02,54,8.20
2016,04,01,02,55,8.20
2016,04,01,02,56,8.10
2016,04,01,02,57,8.10
2016,04,01,02,58,8.10
2016,04,01,02,59,8.10
2016,04,01,03,00,8.10
2016,04,01,03,01,8.10
2016,04,01,03,02,8.00
2016,04,01,03,03,8.00
2016,04,01,03,04,8.00
2016,04,01,03,05,8.00
2016,04,01,03,06,7.90
2016,04,01,03,07,7.90
2016,04,01,03,08,7.90
2016,04,01,03,09,7.90
2016,04,01,03,10,7.90
2016,04,01,03,11,7.90
2016,04,01,03,12,7.90
2016,04,01,03,13,7.90
2016,04,01,03,14,7.90
2016,04,01,03,15,7.90
2016,04,01,03,16,7.90
2016,04,01,03,17,7.90
2016,04,01,03,18,7.90
2016,04,01,03,19,7.90
2016,04,01,03,20,7.90
2016,04,01,03,21,7.90
2016,04,01,03,22,7.90
2016,04,01,03,23,7.90
2016,04,01,03,24,7.90
2016,04,01,03,25,7.90
2016,04,01,03,26,7.90
2016,04,01,03,27,7.90
2016,04,01,03,28,7.90
2016,04,01,03,29,7.90
2016,04,01,03,30,7.90
2016,04,01,03,31,7.90
2016,04,01,03,32,7.90
2016,04,01,03,33,8.00
2016,04,01,03,34,8.10
2016,04,01,03,35,8.10
2016,04,01,03,36,8.20
2016,04,01,03,37,8.20
2016,04,01,03,38,8.20
2016,04,01,03,39,8.30
2016,04,01,03,40,8.30
2016,04,01,03,41,8.30
2016,04,01,03,42,8.30
2016,04,01,03,43,8.30
2016,04,01,03,44,8.30
2016,04,01,03,45,8.30
2016,04,01,03,46,8.30
2016,04,01,03,47,8.30
2016,04,01,03,48,8.30
2016,04,01,03,49,8.30
2016,04,01,03,50,8.30
2016,04,01,03,51,8.30
2016,04,01,03,52,8.30
2016,04,01,03,53,8.30
2016,04,01,03,54,8.30
2016,04,01,03,55,8.30
2016,04,01,03,56,8.30
2016,04,01,03,57,8.30
2016,04,01,03,58,8.30
2016,04,01,03,59,8.30
2016,04,01,04,00,8.30
2016,04,01,04,01,8.30
2016,04,01,04,02,8.20
2016,04,01,04,03,8.20
2016,04,01,04,04,8.20
2016,04,01,04,05,8.20
2016,04,01,04,06,8.20
2016,04,01,04,07,8.20
2016,04,01,04,08,8.20
2016,04,01,04,09,8.20
2016,04,01,04,10,8.20
2016,04,01,04,11,8.20
2016,04,01,04,12,8.20
2016,04,01,04,13,8.20
2016,04,01,04,14,8.20
2016,04,01,04,15,8.20
2016,04,01,04,16,8.20
2016,04,01,04,17,8.20
2016,04,01,04,18,8.20
2016,04,01,04,19,8.20
2016,04,01,04,20,8.20
2016,04,01,04,21,8.30
2016,04,01,04,22,8.20
2016,04,01,04,23,8.30
2016,04,01,04,24,8.20
2016,04,01,04,25,8.30
2016,04,01,04,26,8.30
2016,04,01,04,27,8.30
2016,04,01,04,28,8.30
2016,04,01,04,29,8.30
2016,04,01,04,30,8.30
2016,04,01,04,31,8.20
2016,04,01,04,32,8.20
2016,04,01,04,33,8.20
2016,04,01,04,34,8.20
2016,04,01,04,35,8.20
2016,04,01,04,36,8.20
2016,04,01,04,37,8.20
2016,04,01,04,38,8.20
2016,04,01,04,39,8.20
2016,04,01,04,40,8.20
2016,04,01,04,41,8.20
2016,04,01,04,42,8.20
2016,04,01,04,43,8.20
2016,04,01,04,44,8.20
2016,04,01,04,45,8.20
2016,04,01,04,46,8.20
2016,04,01,04,47,8.20
2016,04,01,04,48,8.10
2016,04,01,04,49,8.10
2016,04,01,04,50,8.10
2016,04,01,04,51,8.00
2016,04,01,04,52,8.00
2016,04,01,04,53,7.90
2016,04,01,04,54,8.00
2016,04,01,04,55,8.00
2016,04,01,04,56,8.00
2016,04,01,04,57,7.90
2016,04,01,04,58,8.00
2016,04,01,04,59,8.00
2016,04,01,05,00,7.90
2016,04,01,05,01,7.90
2016,04,01,05,02,7.90
2016,04,01,05,03,7.90
2016,04,01,05,04,7.90
2016,04,01,05,05,7.90
2016,04,01,05,06,7.90
2016,04,01,05,07,7.90
2016,04,01,05,08,7.90
2016,04,01,05,09,7.90
2016,04,01,05,10,7.90
2016,04,01,05,11,7.90
2016,04,01,05,12,7.90
2016,04,01,05,13,7.90
2016,04,01,05,14,7.90
2016,04,01,05,15,7.80
2016,04,01,05,16,7.80
2016,04,01,05,17,7.80
2016,04,01,05,18,7.80
2016,04,01,05,19,7.80
2016,04,01,05,20,7.90
2016,04,01,05,21,7.90
2016,04,01,05,22,7.80
2016,04,01,05,23,7.80
2016,04,01,05,24,7.80
2016,04,01,05,25,7.80
2016,04,01,05,26,7.80
2016,04,01,05,27,7.80
2016,04,01,05,28,7.80
2016,04,01,05,29,7.80
2016,04,01,05,30,7.80
2016,04,01,05,31,7.80
2016,04,01,05,32,7.80
2016,04,01,05,33,7.80
2016,04,01,05,34,7.80
2016,04,01,05,35,7.80
2016,04,01,05,36,7.80
2016,04,01,05,37,7.70
2016,04,01,05,38,7.70
2016,04,01,05,39,7.70
2016,04,01,05,40,7.70
2016,04,01,05,41,7.70
2016,04,01,05,42,7.70
2016,04,01,05,43,7.70
2016,04,01,05,44,7.70
2016,04,01,05,45,7.70
2016,04,01,05,46,7.70
2016,04,01,05,47,7.70
2016,04,01,05,48,7.70
2016,04,01,05,49,7.70
2016,04,01,05,50,7.70
2016,04,01,05,51,7.60
2016,04,01,05,52,7.60
2016,04,01,05,53,7.60
2016,04,01,05,54,7.60
2016,04,01,05,55,7.50
2016,04,01,05,56,7.50
2016,04,01,05,57,7.50
2016,04,01,05,58,7.50
2016,04,01,05,59,7.40
2016,04,01,06,00,7.40
2016,04,01,06,01,7.40
2016,04,01,06,02,7.40
2016,04,01,06,03,7.40
2016,04,01,06,04,7.40
2016,04,01,06,05,7.40
2016,04,01,06,06,7.40
2016,04,01,06,07,7.40
2016,04,01,06,08,7.30
2016,04,01,06,09,7.30
2016,04,01,06,10,7.40
2016,04,01,06,11,7.30
2016,04,01,06,12,7.30
2016,04,01,06,13,7.30
2016,04,01,06,14,7.30
2016,04,01,06,15,7.30
2016,04,01,06,16,7.30
2016,04,01,06,17,7.30
2016,04,01,06,18,7.30
2016,04,01,06,19,7.30
2016,04,01,06,20,7.30
2016,04,01,06,21,7.30
2016,04,01,06,22,7.30
2016,04,01,06,23,7.30
2016,04,01,06,24,7.30
2016,04,01,06,25,7.30
2016,04,01,06,26,7.30
2016,04,01,06,27,7.30
2016,04,01,06,28,7.30
2016,04,01,06,29,7.30
2016,04,01,06,30,7.30
2016,04,01,06,31,7.30
2016,04,01,06,32,7.30
2016,04,01,06,33,7.30
2016,04,01,06,34,7.30
2016,04,01,06,35,7.30
2016,04,01,06,36,7.30
2016,04,01,06,37,7.30
2016,04,01,06,38,7.30
2016,04,01,06,39,7.30
2016,04,01,06,40,7.30
2016,04,01,06,41,7.30
2016,04,01,06,42,7.30
2016,04,01,06,43,7.30
2016,04,01,06,44,7.30
2016,04,01,06,45,7.30
2016,04,01,06,46,7.30
2016,04,01,06,47,7.30
2016,04,01,06,48,7.30
2016,04,01,06,49,7.30
2016,04,01,06,50,7.30
2016,04,01,06,51,7.30
2016,04,01,06,52,7.30
2016,04,01,06,53,7.30
2016,04,01,06,54,7.30
2016,04,01,06,55,7.30
2016,04,01,06,56,7.30
2016,04,01,06,57,7.30
2016,04,01,06,58,7.30
2016,04,01,06,59,7.30
2016,04,01,07,00,7.30
2016,04,01,07,01,7.30
2016,04,01,07,02,7.30
2016,04,01,07,03,7.30
2016,04,01,07,04,7.30
2016,04,01,07,05,7.30
2016,04,01,07,06,7.30
2016,04,01,07,07,7.30
2016,04,01,07,08,7.30
2016,04,01,07,09,7.30
2016,04,01,07,10,7.30
2016,04,01,07,11,7.30
2016,04,01,07,12,7.30
2016,04,01,07,13,7.30
2016,04,01,07,14,7.30
2016,04,01,07,15,7.30
2016,04,01,07,16,7.30
2016,04,01,07,17,7.30
2016,04,01,07,18,7.20
2016,04,01,07,19,7.20
2016,04,01,07,20,7.30
2016,04,01,07,21,7.20
2016,04,01,07,22,7.20
2016,04,01,07,23,7.20
2016,04,01,07,24,7.20
2016,04,01,07,25,7.20
2016,04,01,07,26,7.20
2016,04,01,07,27,7.20
2016,04,01,07,28,7.20
2016,04,01,07,29,7.20
2016,04,01,07,30,7.20
2016,04,01,07,31,7.20
2016,04,01,07,32,7.20
2016,04,01,07,33,7.20
2016,04,01,07,34,7.20
2016,04,01,07,35,7.20
2016,04,01,07,36,7.20
2016,04,01,07,37,7.20
2016,04,01,07,38,7.20
2016,04,01,07,39,7.20
2016,04,01,07,40,7.20
2016,04,01,07,41,7.20
2016,04,01,07,42,7.20
2016,04,01,07,43,7.30
2016,04,01,07,44,7.30
2016,04,01,07,45,7.30
2016,04,01,07,46,7.30
2016,04,01,07,47,7.30
2016,04,01,07,48,7.30
2016,04,01,07,49,7.30
2016,04,01,07,50,7.30
2016,04,01,07,51,7.30
2016,04,01,07,52,7.30
2016,04,01,07,53,7.30
2016,04,01,07,54,7.30
2016,04,01,07,55,7.30
2016,04,01,07,56,7.30
2016,04,01,07,57,7.40
2016,04,01,07,58,7.40
2016,04,01,07,59,7.40
2016,04,01,08,00,7.40
2016,04,01,08,01,7.40
2016,04,01,08,02,7.40
2016,04,01,08,03,7.40
2016,04,01,08,04,7.40
2016,04,01,08,05,7.50
2016,04,01,08,06,7.60
2016,04,01,08,07,7.60
2016,04,01,08,08,7.60
2016,04,01,08,09,7.70
2016,04,01,08,10,7.70
2016,04,01,08,11,7.70
2016,04,01,08,12,7.80
2016,04,01,08,13,7.80
2016,04,01,08,14,7.80
2016,04,01,08,15,7.80
2016,04,01,08,16,7.80
2016,04,01,08,17,7.80
2016,04,01,08,18,7.80
2016,04,01,08,19,7.90
2016,04,01,08,20,7.90
2016,04,01,08,21,7.90
2016,04,01,08,22,7.90
2016,04,01,08,23,7.90
2016,04,01,08,24,7.90
2016,04,01,08,25,7.90
2016,04,01,08,26,7.90
2016,04,01,08,27,7.90
2016,04,01,08,28,7.90
2016,04,01,08,29,7.90
2016,04,01,08,30,7.90
2016,04,01,08,31,7.90
2016,04,01,08,32,7.90
2016,04,01,08,33,8.00
2016,04,01,08,34,8.00
2016,04,01,08,35,8.00
2016,04,01,08,36,8.00
2016,04,01,08,37,8.00
2016,04,01,08,38,8.00
2016,04,01,08,39,8.00
2016,04,01,08,40,8.00
2016,04,01,08,41,8.00
2016,04,01,08,42,8.00
2016,04,01,08,43,8.00
2016,04,01,08,44,8.00
2016,04,01,08,45,8.00
2016,04,01,08,46,8.00
2016,04,01,08,47,8.00
2016,04,01,08,48,8.10
2016,04,01,08,49,8.10
2016,04,01,08,50,8.10
2016,04,01,08,51,8.10
2016,04,01,08,52,8.10
2016,04,01,08,53,8.10
2016,04,01,08,54,8.10
2016,04,01,08,55,8.10
2016,04,01,08,56,8.10
2016,04,01,08,57,8.10
2016,04,01,08,58,8.10
2016,04,01,08,59,8.10
2016,04,01,09,00,8.10
2016,04,01,09,01,8.10
2016,04,01,09,02,8.10
2016,04,01,09,03,8.20
2016,04,01,09,04,8.10
2016,04,01,09,05,8.20
2016,04,01,09,06,8.20
2016,04,01,09,07,8.20
2016,04,01,09,08,8.20
2016,04,01,09,09,8.20
2016,04,01,09,10,8.20
2016,04,01,09,11,8.20
2016,04,01,09,12,8.20
2016,04,01,09,13,8.20
2016,04,01,09,14,8.20
2016,04,01,09,15,8.20
2016,04,01,09,16,8.20
2016,04,01,09,17,8.20
2016,04,01,09,18,8.20
2016,04,01,09,19,8.20
2016,04,01,09,20,8.20
2016,04,01,09,21,8.20
2016,04,01,09,22,8.20
2016,04,01,09,23,8.30
2016,04,01,09,24,8.30
2016,04,01,09,25,8.20
2016,04,01,09,26,8.20
2016,04,01,09,27,8.20
2016,04,01,09,28,8.20
2016,04,01,09,29,8.10
2016,04,01,09,30,8.10
2016,04,01,09,31,8.10
2016,04,01,09,32,8.10
2016,04,01,09,33,8.10
2016,04,01,09,34,8.10
2016,04,01,09,35,8.00
2016,04,01,09,36,8.00
2016,04,01,09,37,8.00
2016,04,01,09,38,8.00
2016,04,01,09,39,8.00
2016,04,01,09,40,8.10
2016,04,01,09,41,8.10
2016,04,01,09,42,8.10
2016,04,01,09,43,8.10
2016,04,01,09,44,8.10
2016,04,01,09,45,8.10
2016,04,01,09,46,8.10
2016,04,01,09,47,8.00
2016,04,01,09,48,8.00
2016,04,01,09,49,8.00
2016,04,01,09,50,8.00
2016,04,01,09,51,8.00
2016,04,01,09,52,8.10
2016,04,01,09,53,8.10
2016,04,01,09,54,8.10
2016,04,01,09,55,8.10
2016,04,01,09,56,8.10
2016,04,01,09,57,8.10
2016,04,01,09,58,8.10
2016,04,01,09,59,8.10
2016,04,01,10,00,8.10
2016,04,01,10,01,8.10
2016,04,01,10,02,8.10
2016,04,01,10,03,8.10
2016,04,01,10,04,8.10
2016,04,01,10,05,8.20
2016,04,01,10,06,8.20
2016,04,01,10,07,8.20
2016,04,01,10,08,8.20
2016,04,01,10,09,8.20
2016,04,01,10,10,8.30
2016,04,01,10,11,8.30
2016,04,01,10,12,8.30
2016,04,01,10,13,8.40
2016,04,01,10,14,8.40
2016,04,01,10,15,8.40
2016,04,01,10,16,8.40
2016,04,01,10,17,8.40
2016,04,01,10,18,8.50
2016,04,01,10,19,8.60
2016,04,01,10,20,8.60
2016,04,01,10,21,8.60
2016,04,01,10,22,8.60
2016,04,01,10,23,8.70
2016,04,01,10,24,8.70
2016,04,01,10,25,8.70
2016,04,01,10,26,8.70
2016,04,01,10,27,8.80
2016,04,01,10,28,8.80
2016,04,01,10,29,8.80
2016,04,01,10,30,8.90
2016,04,01,10,31,9.00
2016,04,01,10,32,9.10
2016,04,01,10,33,9.10
2016,04,01,10,34,9.10
2016,04,01,10,35,9.20
2016,04,01,10,36,9.20
2016,04,01,10,37,9.20
2016,04,01,10,38,9.30
2016,04,01,10,39,9.30
2016,04,01,10,40,9.30
2016,04,01,10,41,9.40
2016,04,01,10,42,9.50
2016,04,01,10,43,9.60
2016,04,01,10,44,9.60
2016,04,01,10,45,9.70
2016,04,01,10,46,9.70
2016,04,01,10,47,9.70
2016,04,01,10,48,9.70
2016,04,01,10,49,9.70
2016,04,01,10,50,9.80
2016,04,01,10,51,9.80
2016,04,01,10,52,9.80
2016,04,01,10,53,9.80
2016,04,01,10,54,9.90
2016,04,01,10,55,9.90
2016,04,01,10,56,9.90
2016,04,01,10,57,10.00
2016,04,01,10,58,10.10
2016,04,01,10,59,10.20
2016,04,01,11,00,10.20
2016,04,01,11,01,10.30
2016,04,01,11,02,10.40
2016,04,01,11,03,10.40
2016,04,01,11,04,10.50
2016,04,01,11,05,10.60
2016,04,01,11,06,10.60
2016,04,01,11,07,10.60
2016,04,01,11,08,10.60
2016,04,01,11,09,10.70
2016,04,01,11,10,10.70
2016,04,01,11,11,10.80
2016,04,01,11,12,10.80
2016,04,01,11,13,10.80
2016,04,01,11,14,10.80
2016,04,01,11,15,10.80
2016,04,01,11,16,10.90
2016,04,01,11,17,10.90
2016,04,01,11,18,10.90
2016,04,01,11,19,11.00
2016,04,01,11,20,11.00
2016,04,01,11,21,11.10
2016,04,01,11,22,11.10
2016,04,01,11,23,11.20
2016,04,01,11,24,11.20
2016,04,01,11,25,11.30
2016,04,01,11,26,11.30
2016,04,01,11,27,11.40
2016,04,01,11,28,11.40
2016,04,01,11,29,11.40
2016,04,01,11,30,11.40
2016,04,01,11,31,11.40
2016,04,01,11,32,11.40
2016,04,01,11,33,11.40
2016,04,01,11,34,11.40
2016,04,01,11,35,11.40
2016,04,01,11,36,11.40
2016,04,01,11,37,11.40
2016,04,01,11,38,11.40
2016,04,01,11,39,11.40
2016,04,01,11,40,11.40
2016,04,01,11,41,11.50
2016,04,01,11,42,11.60
2016,04,01,11,43,11.60
2016,04,01,11,44,11.60
2016,04,01,11,45,11.60
2016,04,01,11,46,11.70
2016,04,01,11,47,11.70
2016,04,01,11,48,11.70
2016,04,01,11,49,11.80
2016,04,01,11,50,11.80
2016,04,01,11,51,11.80
2016,04,01,11,52,11.80
2016,04,01,11,53,11.80
2016,04,01,11,54,11.90
2016,04,01,11,55,11.90
2016,04,01,11,56,12.00
2016,04,01,11,57,12.10
2016,04,01,11,58,12.20
2016,04,01,11,59,12.20
2016,04,01,12,00,12.20
2016,04,01,12,01,12.20
2016,04,01,12,02,12.30
2016,04,01,12,03,12.30
2016,04,01,12,04,12.40
2016,04,01,12,05,12.60
2016,04,01,12,06,12.70
2016,04,01,12,07,12.80
2016,04,01,12,08,12.90
2016,04,01,12,09,13.00
2016,04,01,12,10,13.20
2016,04,01,12,11,13.20
2016,04,01,12,12,13.30
2016,04,01,12,13,13.30
2016,04,01,12,14,13.20
2016,04,01,12,15,13.20
2016,04,01,12,16,13.20
2016,04,01,12,17,13.30
2016,04,01,12,18,13.30
2016,04,01,12,19,13.30
2016,04,01,12,20,13.30
2016,04,01,12,21,13.40
2016,04,01,12,22,13.40
2016,04,01,12,23,13.60
2016,04,01,12,24,13.70
2016,04,01,12,25,13.80
2016,04,01,12,26,13.80
2016,04,01,12,27,13.90
2016,04,01,12,28,13.90
2016,04,01,12,29,14.00
2016,04,01,12,30,14.00
2016,04,01,12,31,14.00
2016,04,01,12,32,14.00
2016,04,01,12,33,13.90
2016,04,01,12,34,13.90
2016,04,01,12,35,13.80
2016,04,01,12,36,13.80
2016,04,01,12,37,13.70
2016,04,01,12,38,13.70
2016,04,01,12,39,13.70
2016,04,01,12,40,13.60
2016,04,01,12,41,13.60
2016,04,01,12,42,13.60
2016,04,01,12,43,13.60
2016,04,01,12,44,13.70
2016,04,01,12,45,13.70
2016,04,01,12,46,13.70
2016,04,01,12,47,13.70
2016,04,01,12,48,13.70
2016,04,01,12,49,13.60
2016,04,01,12,50,13.60
2016,04,01,12,51,13.60
2016,04,01,12,52,13.60
2016,04,01,12,53,13.60
2016,04,01,12,54,13.60
2016,04,01,12,55,13.60
2016,04,01,12,56,13.70
2016,04,01,12,57,13.80
2016,04,01,12,58,13.80
2016,04,01,12,59,13.90
2016,04,01,13,00,14.10
2016,04,01,13,01,14.20
2016,04,01,13,02,14.20
2016,04,01,13,03,14.30
2016,04,01,13,04,14.30
2016,04,01,13,05,14.40
2016,04,01,13,06,14.40
2016,04,01,13,07,14.30
2016,04,01,13,08,14.30
2016,04,01,13,09,14.30
2016,04,01,13,10,14.30
2016,04,01,13,11,14.30
2016,04,01,13,12,14.30
2016,04,01,13,13,14.30
2016,04,01,13,14,14.30
2016,04,01,13,15,14.40
2016,04,01,13,16,14.40
2016,04,01,13,17,14.40
2016,04,01,13,18,14.30
2016,04,01,13,19,14.30
2016,04,01,13,20,14.20
2016,04,01,13,21,14.20
2016,04,01,13,22,14.30
2016,04,01,13,23,14.30
2016,04,01,13,24,14.30
2016,04,01,13,25,14.30
2016,04,01,13,26,14.40
2016,04,01,13,27,14.50
2016,04,01,13,28,14.60
2016,04,01,13,29,14.60
2016,04,01,13,30,14.60
2016,04,01,13,31,14.70
2016,04,01,13,32,14.70
2016,04,01,13,33,14.70
2016,04,01,13,34,14.80
2016,04,01,13,35,14.90
2016,04,01,13,36,14.90
2016,04,01,13,37,15.10
2016,04,01,13,38,15.10
2016,04,01,13,39,15.20
2016,04,01,13,40,15.30
2016,04,01,13,41,15.30
2016,04,01,13,42,15.40
2016,04,01,13,43,15.50
2016,04,01,13,44,15.60
2016,04,01,13,45,15.70
2016,04,01,13,46,15.70
2016,04,01,13,47,15.80
2016,04,01,13,48,15.80
2016,04,01,13,49,15.90
2016,04,01,13,50,15.90
2016,04,01,13,51,16.10
2016,04,01,13,52,16.20
2016,04,01,13,53,16.30
2016,04,01,13,54,16.30
2016,04,01,13,55,16.40
2016,04,01,13,56,16.60
2016,04,01,13,57,16.60
2016,04,01,13,58,16.60
2016,04,01,13,59,16.60
2016,04,01,14,00,16.70
2016,04,01,14,01,16.70
2016,04,01,14,02,16.80
2016,04,01,14,03,16.80
2016,04,01,14,04,16.70
2016,04,01,14,05,16.80
2016,04,01,14,06,16.80
2016,04,01,14,07,16.70
2016,04,01,14,08,16.70
2016,04,01,14,09,16.70
2016,04,01,14,10,16.80
2016,04,01,14,11,16.80
2016,04,01,14,12,16.90
2016,04,01,14,13,16.90
2016,04,01,14,14,16.90
2016,04,01,14,15,16.90
2016,04,01,14,16,17.00
2016,04,01,14,17,17.00
2016,04,01,14,18,17.00
2016,04,01,14,19,17.00
2016,04,01,14,20,17.00
2016,04,01,14,21,17.00
2016,04,01,14,22,17.00
2016,04,01,14,23,16.90
2016,04,01,14,24,16.90
2016,04,01,14,25,17.00
2016,04,01,14,26,17.10
2016,04,01,14,27,17.20
2016,04,01,14,28,17.20
2016,04,01,14,29,17.30
2016,04,01,14,30,17.30
2016,04,01,14,31,17.40
2016,04,01,14,32,17.40
2016,04,01,14,33,17.40
2016,04,01,14,34,17.40
2016,04,01,14,35,17.40
2016,04,01,14,36,17.40
2016,04,01,14,37,17.40
2016,04,01,14,38,17.40
2016,04,01,14,39,17.30
2016,04,01,14,40,17.30
2016,04,01,14,41,17.30
2016,04,01,14,42,17.30
2016,04,01,14,43,17.30
2016,04,01,14,44,17.30
2016,04,01,14,45,17.30
2016,04,01,14,46,17.30
2016,04,01,14,47,17.30
2016,04,01,14,48,17.30
2016,04,01,14,49,17.30
2016,04,01,14,50,17.40
2016,04,01,14,51,17.40
2016,04,01,14,52,17.40
2016,04,01,14,53,17.30
2016,04,01,14,54,17.30
2016,04,01,14,55,17.40
2016,04,01,14,56,17.40
2016,04,01,14,57,17.40
2016,04,01,14,58,17.50
2016,04,01,14,59,17.60
2016,04,01,15,00,17.70
2016,04,01,15,01,17.80
2016,04,01,15,02,17.80
2016,04,01,15,03,17.80
2016,04,01,15,04,17.70
2016,04,01,15,05,17.70
2016,04,01,15,06,17.70
2016,04,01,15,07,17.70
2016,04,01,15,08,17.80
2016,04,01,15,09,17.80
2016,04,01,15,10,17.90
2016,04,01,15,11,17.90
2016,04,01,15,12,17.90
2016,04,01,15,13,17.90
2016,04,01,15,14,17.90
2016,04,01,15,15,17.80
2016,04,01,15,16,17.90
2016,04,01,15,17,17.90
2016,04,01,15,18,17.90
2016,04,01,15,19,17.90
2016,04,01,15,20,17.90
2016,04,01,15,21,17.90
2016,04,01,15,22,17.80
2016,04,01,15,23,17.70
2016,04,01,15,24,17.70
2016,04,01,15,25,17.70
2016,04,01,15,26,17.80
2016,04,01,15,27,17.80
2016,04,01,15,28,17.80
2016,04,01,15,29,17.80
2016,04,01,15,30,17.80
2016,04,01,15,31,17.80
2016,04,01,15,32,17.70
2016,04,01,15,33,17.80
2016,04,01,15,34,17.80
2016,04,01,15,35,17.80
2016,04,01,15,36,17.70
2016,04,01,15,37,17.60
2016,04,01,15,38,17.50
2016,04,01,15,39,17.40
2016,04,01,15,40,17.40
2016,04,01,15,41,17.40
2016,04,01,15,42,17.40
2016,04,01,15,43,17.40
2016,04,01,15,44,17.40
2016,04,01,15,45,17.50
2016,04,01,15,46,17.50
2016,04,01,15,47,17.60
2016,04,01,15,48,17.60
2016,04,01,15,49,17.60
2016,04,01,15,50,17.70
2016,04,01,15,51,17.70
2016,04,01,15,52,17.70
2016,04,01,15,53,17.70
2016,04,01,15,54,17.80
2016,04,01,15,55,17.90
2016,04,01,15,56,18.00
2016,04,01,15,57,18.10
2016,04,01,15,58,18.00
2016,04,01,15,59,17.90
2016,04,01,16,00,17.90
2016,04,01,16,01,18.00
2016,04,01,16,02,18.00
2016,04,01,16,03,17.90
2016,04,01,16,04,17.90
2016,04,01,16,05,17.90
2016,04,01,16,06,17.80
2016,04,01,16,07,17.80
2016,04,01,16,08,17.90
2016,04,01,16,09,17.80
2016,04,01,16,10,17.90
2016,04,01,16,11,17.90
2016,04,01,16,12,17.90
2016,04,01,16,13,17.90
2016,04,01,16,14,17.90
2016,04,01,16,15,17.90
2016,04,01,16,16,17.90
2016,04,01,16,17,17.90
2016,04,01,16,18,17.90
2016,04,01,16,19,18.00
2016,04,01,16,20,18.00
2016,04,01,16,21,18.10
2016,04,01,16,22,18.10
2016,04,01,16,23,18.10
2016,04,01,16,24,18.10
2016,04,01,16,25,18.20
2016,04,01,16,26,18.10
2016,04,01,16,27,18.20
2016,04,01,16,28,18.20
2016,04,01,16,29,18.20
2016,04,01,16,30,18.20
2016,04,01,16,31,18.20
2016,04,01,16,32,18.30
2016,04,01,16,33,18.30
2016,04,01,16,34,18.30
2016,04,01,16,35,18.20
2016,04,01,16,36,18.20
2016,04,01,16,37,18.30
2016,04,01,16,38,18.30
2016,04,01,16,39,18.30
2016,04,01,16,40,18.40
2016,04,01,16,41,18.40
2016,04,01,16,42,18.40
2016,04,01,16,43,18.40
2016,04,01,16,44,18.40
2016,04,01,16,45,18.50
2016,04,01,16,46,18.40
2016,04,01,16,47,18.40
2016,04,01,16,48,18.50
2016,04,01,16,49,18.40
2016,04,01,16,50,18.40
2016,04,01,16,51,18.30
2016,04,01,16,52,18.30
2016,04,01,16,53,18.20
2016,04,01,16,54,18.20
2016,04,01,16,55,18.20
2016,04,01,16,56,18.20
2016,04,01,16,57,18.20
2016,04,01,16,58,18.30
2016,04,01,16,59,18.30
2016,04,01,17,00,18.30
2016,04,01,17,01,18.30
2016,04,01,17,02,18.30
2016,04,01,17,03,18.30
2016,04,01,17,04,18.30
2016,04,01,17,05,18.30
2016,04,01,17,06,18.30
2016,04,01,17,07,18.30
2016,04,01,17,08,18.30
2016,04,01,17,09,18.20
2016,04,01,17,10,18.20
2016,04,01,17,11,18.20
2016,04,01,17,12,18.20
2016,04,01,17,13,18.20
2016,04,01,17,14,18.10
2016,04,01,17,15,18.10
2016,04,01,17,16,18.10
2016,04,01,17,17,18.10
2016,04,01,17,18,18.10
2016,04,01,17,19,18.20
2016,04,01,17,20,18.20
2016,04,01,17,21,18.20
2016,04,01,17,22,18.10
2016,04,01,17,23,18.10
2016,04,01,17,24,18.10
2016,04,01,17,25,18.10
2016,04,01,17,26,18.10
2016,04,01,17,27,18.20
2016,04,01,17,28,18.10
2016,04,01,17,29,18.20
2016,04,01,17,30,18.20
2016,04,01,17,31,18.20
2016,04,01,17,32,18.10
2016,04,01,17,33,18.10
2016,04,01,17,34,18.00
2016,04,01,17,35,18.00
2016,04,01,17,36,17.90
2016,04,01,17,37,18.00
2016,04,01,17,38,18.00
2016,04,01,17,39,18.00
2016,04,01,17,40,17.90
2016,04,01,17,41,17.90
2016,04,01,17,42,17.90
2016,04,01,17,43,17.80
2016,04,01,17,44,17.80
2016,04,01,17,45,17.70
2016,04,01,17,46,17.70
2016,04,01,17,47,17.60
2016,04,01,17,48,17.60